Terminal Aerodrome Forecast
Issued by NWS Charleston, WV

Current Version | Previous Version | Graphics & Text | Print | Product List | Glossary On
Versions: 1 2 3 4 5 6 7 8 9 10 11 12 13 14 15 16 17 18 19 20 21 22 23 24 25 26
000
FTUS41 KRLX 220500
TAFPKB
TAF
KPKB 220539Z 2206/2306 00000KT P6SM FEW150
     FM221400 VRB03KT P6SM BKN050=

USA.gov is the U.S. government's official web portal to all federal, state and local government web resources and services.